When you browse on this site, cookies collect data to enhance your experience and personalize the content and advertising you see.
Visit our Privacy Policy to learn more. By continuing to use the site, you agree to this use of cookies and data.
  • en Suisse
  • Liste des pays
  • À 7 jours
  • Température de l'eau
  • Carte satellitaire
  • Carte météo
  • Widgets météo
  • user-avatar
    Se connecter

    Météo par heure à Aminevo

    Ce jour, 20 Février, Mercredi

    Heure Température Précipitation Vent Pression Humidité
    00:00 -12°C° 0 mm 2 m/s 704 mmHg 97%
    01:00 -11°C° 0 mm 1 m/s 704 mmHg 97%
    02:00 -13°C° 0.1 mm 2 m/s 705 mmHg 96%
    03:00 -13°C° 0.1 mm 2 m/s 705 mmHg 96%
    04:00 -13°C° 0.1 mm 2 m/s 705 mmHg 95%
    05:00 -15°C° 0 mm 2 m/s 706 mmHg 95%
    06:00 -16°C° 0 mm 2 m/s 706 mmHg 95%
    07:00 -17°C° 0 mm 2 m/s 706 mmHg 95%
    08:00 -16°C° 0 mm 2 m/s 707 mmHg 94%
    09:00 -15°C° 0 mm 2 m/s 707 mmHg 93%
    10:00 -14°C° 0 mm 2 m/s 708 mmHg 91%
    11:00 -13°C° 0 mm 2 m/s 709 mmHg 89%
    12:00 -12°C° 0 mm 2 m/s 709 mmHg 87%
    13:00 -9°C° 0 mm 2 m/s 709 mmHg 85%
    14:00 -9°C° 0 mm 2 m/s 710 mmHg 85%
    15:00 -9°C° 0 mm 2 m/s 710 mmHg 86%
    16:00 -9°C° 0 mm 2 m/s 710 mmHg 87%
    17:00 -12°C° 0 mm 2 m/s 710 mmHg 90%
    18:00 -14°C° 0 mm 2 m/s 711 mmHg 92%
    19:00 -16°C° 0 mm 2 m/s 711 mmHg 95%
    20:00 -16°C° 0 mm 2 m/s 711 mmHg 94%
    21:00 -15°C° 0 mm 2 m/s 711 mmHg 92%
    22:00 -15°C° 0 mm 2 m/s 711 mmHg 91%
    23:00 -16°C° 0 mm 3 m/s 711 mmHg 91%

    Demain, 21 Février, Jeudi

    Heure Température Précipitation Vent Pression Humidité
    00:00 -16°C° 0 mm 3 m/s 711 mmHg 92%
    01:00 -16°C° 0 mm 4 m/s 711 mmHg 93%
    02:00 -16°C° 0 mm 4 m/s 711 mmHg 93%
    03:00 -16°C° 0 mm 4 m/s 710 mmHg 93%
    04:00 -16°C° 0 mm 4 m/s 710 mmHg 93%
    05:00 -16°C° 0 mm 4 m/s 710 mmHg 93%
    06:00 -17°C° 0 mm 4 m/s 710 mmHg 93%
    07:00 -17°C° 0 mm 4 m/s 710 mmHg 93%
    08:00 -15°C° 0 mm 5 m/s 711 mmHg 91%
    09:00 -13°C° 0 mm 5 m/s 711 mmHg 88%
    10:00 -11°C° 0 mm 6 m/s 711 mmHg 85%
    11:00 -10°C° 0 mm 6 m/s 712 mmHg 82%
    12:00 -9°C° 0 mm 7 m/s 712 mmHg 78%
    13:00 -8°C° 0 mm 7 m/s 712 mmHg 74%
    14:00 -8°C° 0 mm 7 m/s 712 mmHg 74%
    15:00 -8°C° 0 mm 6 m/s 712 mmHg 75%
    16:00 -9°C° 0 mm 6 m/s 712 mmHg 75%
    17:00 -10°C° 0 mm 6 m/s 712 mmHg 78%
    18:00 -11°C° 0 mm 5 m/s 712 mmHg 82%
    19:00 -12°C° 0 mm 5 m/s 712 mmHg 86%
    20:00 -12°C° 0 mm 5 m/s 712 mmHg 87%
    21:00 -11°C° 0 mm 4 m/s 712 mmHg 88%
    22:00 -11°C° 0 mm 4 m/s 712 mmHg 89%
    23:00 -11°C° 0 mm 4 m/s 712 mmHg 89%

    Après-demain, 22 Février, Vendredi

    Heure Température Précipitation Vent Pression Humidité
    00:00 -10°C° 0 mm 4 m/s 713 mmHg 89%
    01:00 -10°C° 0 mm 4 m/s 713 mmHg 89%
    02:00 -10°C° 0 mm 4 m/s 712 mmHg 89%
    03:00 -11°C° 0 mm 4 m/s 712 mmHg 89%
    04:00 -12°C° 0 mm 3 m/s 712 mmHg 89%
    05:00 -12°C° 0 mm 3 m/s 712 mmHg 90%
    06:00 -14°C° 0 mm 4 m/s 711 mmHg 92%
    07:00 -15°C° 0 mm 4 m/s 711 mmHg 93%
    08:00 -14°C° 0 mm 4 m/s 711 mmHg 93%
    09:00 -13°C° 0 mm 5 m/s 711 mmHg 92%
    10:00 -12°C° 0 mm 6 m/s 711 mmHg 92%
    11:00 -11°C° 0.1 mm 6 m/s 711 mmHg 92%
    12:00 -10°C° 0.1 mm 6 m/s 710 mmHg 92%
    13:00 -9°C° 0.1 mm 7 m/s 710 mmHg 92%
    14:00 -9°C° 0.1 mm 7 m/s 710 mmHg 92%
    15:00 -8°C° 0.1 mm 7 m/s 710 mmHg 91%
    16:00 -8°C° 0.1 mm 7 m/s 709 mmHg 91%
    17:00 -8°C° 0.4 mm 7 m/s 709 mmHg 92%
    18:00 -8°C° 0.4 mm 7 m/s 709 mmHg 92%
    19:00 -8°C° 0.4 mm 7 m/s 709 mmHg 93%
    20:00 -8°C° 0.4 mm 6 m/s 710 mmHg 92%
    21:00 -8°C° 0.4 mm 6 m/s 711 mmHg 92%
    22:00 -7°C° 0.4 mm 5 m/s 711 mmHg 91%
    23:00 -10°C° 0 mm 5 m/s 711 mmHg 91%

    23 Février, Samedi

    Heure Température Précipitation Vent Pression Humidité
    00:00 -11°C° 0 mm 4 m/s 712 mmHg 91%
    01:00 -13°C° 0 mm 3 m/s 712 mmHg 92%
    02:00 -14°C° 0 mm 3 m/s 713 mmHg 93%
    03:00 -15°C° 0 mm 3 m/s 713 mmHg 94%
    04:00 -15°C° 0 mm 2 m/s 714 mmHg 95%
    05:00 -15°C° 0 mm 2 m/s 714 mmHg 95%
    06:00 -14°C° 0 mm 2 m/s 715 mmHg 95%
    07:00 -14°C° 0 mm 2 m/s 715 mmHg 96%
    08:00 -14°C° 0 mm 3 m/s 716 mmHg 94%
    09:00 -12°C° 0 mm 3 m/s 717 mmHg 93%
    10:00 -11°C° 0 mm 4 m/s 717 mmHg 91%
    11:00 -10°C° 0.1 mm 4 m/s 717 mmHg 88%
    12:00 -11°C° 0.1 mm 5 m/s 718 mmHg 86%
    13:00 -10°C° 0.1 mm 5 m/s 718 mmHg 84%
    14:00 -10°C° 0 mm 5 m/s 718 mmHg 84%
    15:00 -11°C° 0 mm 5 m/s 718 mmHg 85%
    16:00 -10°C° 0 mm 4 m/s 718 mmHg 85%
    17:00 -11°C° 0 mm 4 m/s 718 mmHg 88%
    18:00 -12°C° 0 mm 3 m/s 719 mmHg 90%
    19:00 -13°C° 0 mm 3 m/s 719 mmHg 92%
    20:00 -13°C° 0 mm 3 m/s 719 mmHg 93%
    21:00 -13°C° 0 mm 3 m/s 719 mmHg 93%
    22:00 -12°C° 0 mm 3 m/s 719 mmHg 94%
    23:00 -12°C° 0 mm 3 m/s 720 mmHg 93%

    24 Février, Dimanche

    Heure Température Précipitation Vent Pression Humidité
    00:00 -12°C° 0 mm 3 m/s 720 mmHg 92%
    01:00 -12°C° 0 mm 3 m/s 720 mmHg 92%
    02:00 -12°C° 0 mm 3 m/s 720 mmHg 92%
    03:00 -13°C° 0 mm 3 m/s 720 mmHg 93%
    04:00 -14°C° 0 mm 3 m/s 720 mmHg 94%
    05:00 -14°C° 0 mm 3 m/s 720 mmHg 94%
    06:00 -14°C° 0 mm 3 m/s 720 mmHg 95%
    07:00 -14°C° 0 mm 3 m/s 720 mmHg 95%
    08:00 -13°C° 0 mm 3 m/s 720 mmHg 94%
    09:00 -12°C° 0 mm 4 m/s 721 mmHg 93%
    10:00 -10°C° 0 mm 4 m/s 721 mmHg 92%
    11:00 -9°C° 0 mm 4 m/s 721 mmHg 91%
    12:00 -8°C° 0 mm 4 m/s 721 mmHg 90%
    13:00 -7°C° 0 mm 5 m/s 721 mmHg 89%
    14:00 -7°C° 0 mm 4 m/s 721 mmHg 89%
    15:00 -7°C° 0 mm 4 m/s 720 mmHg 89%
    16:00 -7°C° 0 mm 4 m/s 720 mmHg 90%
    17:00 -7°C° 0 mm 3 m/s 720 mmHg 91%
    18:00 -8°C° 0 mm 3 m/s 720 mmHg 93%
    19:00 -9°C° 0 mm 3 m/s 720 mmHg 94%
    20:00 -9°C° 0 mm 3 m/s 720 mmHg 95%
    21:00 -8°C° 0 mm 2 m/s 720 mmHg 95%
    22:00 -9°C° 0 mm 2 m/s 719 mmHg 96%
    23:00 -8°C° 0 mm 2 m/s 719 mmHg 96%

    25 Février, Lundi

    Heure Température Précipitation Vent Pression Humidité
    00:00 -8°C° 0 mm 2 m/s 719 mmHg 96%
    01:00 -8°C° 0 mm 2 m/s 719 mmHg 96%
    02:00 -8°C° 0 mm 2 m/s 718 mmHg 96%
    03:00 -8°C° 0 mm 2 m/s 718 mmHg 96%
    04:00 -8°C° 0 mm 2 m/s 718 mmHg 96%
    05:00 -9°C° 0 mm 2 m/s 717 mmHg 96%
    06:00 -9°C° 0 mm 2 m/s 717 mmHg 96%
    07:00 -9°C° 0 mm 2 m/s 716 mmHg 96%
    08:00 -9°C° 0 mm 2 m/s 716 mmHg 96%
    09:00 -8°C° 0 mm 2 m/s 716 mmHg 95%
    10:00 -7°C° 0 mm 2 m/s 716 mmHg 94%
    11:00 -6°C° 0 mm 2 m/s 716 mmHg 93%
    12:00 -5°C° 0 mm 2 m/s 715 mmHg 91%
    13:00 -4°C° 0 mm 2 m/s 715 mmHg 90%
    14:00 -4°C° 0.1 mm 2 m/s 714 mmHg 90%
    15:00 -4°C° 0.1 mm 2 m/s 714 mmHg 90%
    16:00 -4°C° 0.1 mm 2 m/s 714 mmHg 90%
    17:00 -6°C° 0 mm 2 m/s 713 mmHg 92%
    18:00 -7°C° 0 mm 2 m/s 713 mmHg 94%
    19:00 -8°C° 0 mm 2 m/s 713 mmHg 96%
    20:00 -8°C° 0 mm 1 m/s 712 mmHg 96%
    21:00 -9°C° 0 mm 1 m/s 712 mmHg 96%
    22:00 -9°C° 0 mm 1 m/s 712 mmHg 97%
    23:00 -10°C° 0 mm 1 m/s 711 mmHg 97%
    Voir plus